Regional Weather Roundup
Issued by NWS Columbia, SC

Home | Current Version | Previous Version | Text Only | Print | Product List | Glossary On
Versions: 1 2 3 4 5 6 7 8 9 10 11 12 13 14 15 16 17 18 19 20 21 22 23 24 25 26 27
000
ASUS42 KCAE 302310
RWRCAE
REGIONAL WEATHER ROUNDUP
NATIONAL WEATHER SERVICE COLUMBIA SC
700 PM EDT THU MAR 30 2017

NOTE: "FAIR" INDICATES FEW OR NO CLOUDS BELOW 12,000 FEET WITH NO
SIGNIFICANT WEATHER AND/OR OBSTRUCTIONS TO VISIBILITY.

NOT ALL STATIONS ARE QUALITY CONTROLLED BY THE NATIONAL
WEATHER SERVICE. USE DATA WITH CAUTION...ESPECIALLY
DEWPOINT OBSERVATIONS.

SCZ001>056-GAZ040-063>065-077-310000-
...UPSTATE SOUTH CAROLINA...

CITY           SKY/WX    TMP DP  RH WIND       PRES   REMARKS
ANDERSON       PTCLDY    72  65  78 E3        29.87R
LIBERTY        CLOUDY    65  61  87 E10       29.88S
SPARTANBURG    CLOUDY    66  61  82 E10       29.89F
CLEMSON        CLOUDY    70  62  76 NE9       29.88S
GREENVILLE     CLOUDY    64  61  90 NE9       29.90F
GREENWOOD      CLOUDY    73  59  61 SE10      29.89R
GREER          CLOUDY    63  61  93 NE8       29.89F FOG
ROCK HILL      CLOUDY    64  62  93 MISG      29.94R
CHESTER        CLOUDY    63  63 100 SE13      29.94S
LAURENS        LGT RAIN  64  63  94 SE9       29.89F


...CENTRAL SOUTH CAROLINA...

CITY           SKY/WX    TMP DP  RH WIND       PRES   REMARKS
COLUMBIA APT   CLOUDY    67  63  87 SE12      29.92F
COLUMBIA OWENS CLOUDY    67  64  90 VRB5      29.93F
MCENTIRE ANGB  MOCLDY    65  65  97 E9        29.93F
ORANGEBURG     CLOUDY    68  65  90 SE7       29.93F
SUMTER SHAW    CLOUDY    67  63  87 SE9       29.93F
AIKEN          MOCLDY    70  63  78 SE16      29.93R
BARNWELL       CLOUDY    73  68  83 SE13      29.91S
MANNING        CLOUDY    68  61  77 S7        29.96F
CAMDEN         CLOUDY    64  63  94 E8        29.94F
LANCASTER      CLOUDY    63  63 100 E9        29.95F
WINNSBORO      LGT RAIN  63  63 100 SE9       29.93F


...EASTERN AND COASTAL SOUTH CAROLINA...

CITY           SKY/WX    TMP DP  RH WIND       PRES   REMARKS
MYRTLE BEACH   MOCLDY    64  61  88 SE12      30.00F
N MYRTLE BCH   LGT RAIN  65  61  87 SE8       30.00F
CONWAY         MOCLDY    66  61  82 SE8       30.00S
MARION         MOCLDY    68  57  68 SE10      30.00S
HARTSVILLE     MOCLDY    64  61  88 SE7       29.96F
FLORENCE       CLOUDY    69  59  70 SE14G22   29.98S
DARLINGTON     CLOUDY    70  59  68 S14G23    29.97F
CHARLESTON APT CLOUDY    68  62  81 E12       29.96F
MOUNT PLEASANT CLOUDY    68  64  88 E8        29.97S
WALTERBORO     CLOUDY    66  63  88 SE9G16    29.95F
BEAUFORT       CLOUDY    69  65  86 E15G23    29.93F


...EASTERN GEORGIA...

CITY           SKY/WX    TMP DP  RH WIND       PRES   REMARKS
AUGUSTA BUSH F MOCLDY    76  61  59 SE7       29.86S
AUGUSTA DANIEL MOCLDY    76  57  51 SE10      29.88F
THOMSON        MOCLDY    77  59  54 SW5       29.90F
WASHINGTON     FAIR      81  59  47 CALM      29.85S
CLAXTON        MOCLDY   N/A N/A N/A NE6       29.89R
SYLVANIA       MOCLDY   N/A N/A N/A SE6       29.90S
STATESBORO     CLOUDY    76  64  67 SE7       29.88F
SAVANNAH       CLOUDY    74  61  63 SE13      29.91S


...SOUTHERN NORTH CAROLINA...

CITY           SKY/WX    TMP DP  RH WIND       PRES   REMARKS
CHARLOTTE      LGT RAIN  65  60  84 SE16      29.94S
MONROE         LGT RAIN  63  60  90 VRB6      29.95S
WADESBORO      LGT RAIN  65  61  88 S3        29.96R
ROCKINGHAM     MOCLDY    70  58  65 SE15G22   29.96F
RUTHERFORDTON  CLOUDY    58  58 100 N6        29.94S FOG
ASHEVILLE      CLOUDY    59  55  87 SE8       29.93R

$$




USA.gov is the U.S. government's official web portal to all federal, state and local government web resources and services.